ECMWFNIL_500_spd_066.txt.gz
Wind_Speed
63 64 64 64 64 65 65 65 64 64 63 62 60 58 57 55 53 52 51 51 53 55 57 56 55 52 49 47 47 46 46 44 41 40 40 41 40 40 38 36 34 34
65 66 67 67 67 67 67 66 66 66 65 64 61 59 58 56 55 53 52 51 52 54 56 57 55 52 49 48 47 46 46 45 42 40 40 41 40 40 39 37 35 34
68 69 69 69 69 69 69 69 68 68 67 65 63 60 59 57 56 54 53 52 52 53 55 56 55 53 50 48 47 47 46 45 42 40 40 41 41 40 39 38 35 34
71 71 71 72 72 72 71 71 70 69 68 66 64 62 60 58 56 55 54 52 52 53 55 56 55 53 50 49 48 47 46 45 43 41 40 42 42 40 40 39 37 34
73 74 74 74 74 74 74 73 72 71 69 68 66 63 61 59 58 57 55 53 52 53 55 56 55 53 51 49 48 47 46 45 43 41 41 42 42 41 40 39 37 36
75 76 76 76 76 76 75 75 74 73 72 70 68 66 63 61 59 58 56 55 53 53 54 56 55 53 51 49 48 48 47 45 43 42 41 42 43 42 41 40 38 37
79 80 80 80 80 79 79 78 77 76 75 73 71 68 66 64 61 59 58 56 54 53 54 56 56 54 52 50 49 48 47 45 44 42 41 42 43 43 42 41 39 38
85 85 85 85 85 84 83 82 81 80 78 77 74 71 68 65 63 61 59 57 55 54 55 56 56 54 52 50 49 48 47 45 44 43 42 42 43 43 42 42 40 39
84 84 85 86 86 86 85 85 84 82 80 78 76 72 69 66 64 62 60 58 56 55 55 56 57 55 53 50 49 48 46 45 44 43 42 42 43 43 43 42 41 40
77 78 79 79 80 81 81 82 82 82 80 79 76 72 69 66 65 63 61 59 57 56 56 57 57 56 53 50 49 48 46 45 44 44 43 42 43 43 43 43 41 40
76 76 76 76 76 75 75 75 76 77 77 77 75 71 68 67 65 63 61 60 59 58 57 57 57 56 53 50 49 47 46 45 44 44 43 43 43 43 43 43 42 40
77 77 76 75 75 74 73 72 71 71 71 72 72 70 67 66 65 64 62 61 60 58 58 57 57 55 52 50 49 47 46 45 44 44 44 43 43 42 42 42 42 41
78 77 76 74 73 72 71 70 69 68 67 68 67 66 66 65 64 63 62 61 60 58 58 57 56 54 51 50 49 47 45 45 44 44 44 43 43 42 42 41 41 41
80 79 77 74 72 71 69 68 67 66 64 65 64 64 63 62 62 62 62 60 59 58 57 56 55 53 51 50 49 47 45 44 43 44 44 43 43 42 41 41 41 41
79 77 76 74 72 70 68 66 65 64 62 62 62 61 61 60 60 60 60 58 57 57 56 55 54 52 51 50 49 47 45 44 43 43 44 43 43 42 41 41 41 40
77 75 74 73 71 68 66 64 63 62 60 59 59 58 58 58 58 59 58 55 55 55 55 53 52 52 51 51 50 47 45 44 43 43 43 43 43 42 41 41 41 40
76 75 74 72 70 68 64 61 59 58 56 56 57 56 56 56 57 58 55 52 53 55 54 52 51 51 51 51 49 46 44 44 43 42 43 43 43 42 41 41 41 40
74 74 73 72 70 67 62 57 54 52 52 54 55 55 55 55 56 57 53 51 53 53 51 49 49 50 51 50 48 45 43 43 43 42 42 43 43 42 41 41 41 41
72 72 70 69 67 64 60 55 49 46 48 51 53 54 54 53 54 55 52 50 51 50 48 47 47 49 50 48 47 45 43 43 42 41 42 43 43 42 40 40 41 41
70 69 67 64 62 60 57 53 47 44 46 49 51 51 51 50 51 50 48 50 50 48 46 47 46 46 47 47 46 44 43 42 40 40 41 42 42 41 40 40 41 41
68 67 64 60 57 56 56 53 48 45 47 49 50 50 49 47 46 45 45 49 49 45 44 45 46 45 44 44 43 42 41 41 39 39 40 42 42 41 40 40 41 41
65 64 63 58 54 54 54 53 49 46 45 45 47 48 47 45 43 44 45 47 46 43 41 42 44 44 41 41 41 40 40 39 38 38 39 40 41 41 40 40 40 40
63 62 61 56 52 51 52 51 50 46 43 42 42 43 44 42 42 44 44 43 43 41 39 39 41 41 40 38 38 39 39 39 38 38 39 39 40 40 39 39 39 39
62 61 58 53 50 50 50 50 49 47 44 43 42 41 40 39 40 42 43 41 40 39 37 36 37 39 38 37 37 38 38 38 37 37 38 39 39 39 39 39 38 38
60 59 57 52 48 49 50 49 49 47 44 43 42 40 39 38 38 39 39 39 38 37 36 35 34 36 38 37 36 37 37 37 37 37 38 38 38 38 38 38 37 37
59 58 55 51 49 49 50 49 47 45 42 41 41 38 37 37 37 37 36 36 36 38 37 35 33 34 36 36 35 36 36 36 36 37 37 38 37 37 37 37 37 37

ECMWFNIL_500_spd_069.txt.gz
Wind_Speed
78 79 79 80 80 80 80 80 80 80 80 79 79 79 79 79 79 79 79 79 78 76 75 73 71 69 67 65 63 62 61 61 60 60 59 58 59 57 54 52 52 52
81 80 79 78 78 78 79 79 80 81 82 83 83 83 83 83 82 82 81 81 80 78 76 75 73 71 69 67 65 64 63 62 61 61 60 59 59 58 55 52 52 52
74 72 71 71 71 71 73 74 76 77 78 80 81 83 84 85 85 86 86 85 84 82 79 77 75 73 71 69 68 66 65 64 63 62 61 60 60 59 56 53 52 52
67 68 68 69 70 70 71 73 75 76 77 77 78 79 80 82 83 84 86 87 87 86 83 80 77 75 73 71 70 69 67 65 64 63 61 60 61 60 57 54 52 52
67 69 71 72 73 74 75 75 76 77 78 78 79 79 80 80 80 80 81 83 84 85 85 83 80 76 74 73 72 70 68 66 65 64 62 61 61 60 58 54 52 52
70 72 74 75 76 78 79 79 79 79 79 79 78 78 79 80 80 80 79 79 80 81 82 83 81 77 75 74 72 71 69 68 66 65 63 62 61 61 59 55 52 52
76 77 78 80 81 81 82 81 81 81 80 78 77 76 76 77 78 79 78 77 78 78 78 79 79 76 74 74 72 71 69 69 68 66 64 62 62 61 59 56 53 51
81 83 84 84 85 84 83 82 81 80 78 77 75 73 72 72 73 75 76 76 75 75 76 76 76 74 73 73 72 70 69 69 68 67 65 63 61 60 58 55 53 52
85 86 87 87 86 85 83 82 80 78 76 74 72 71 70 69 69 70 72 73 73 72 73 73 73 72 71 71 71 69 68 68 68 66 64 62 61 60 58 55 53 51
87 87 88 87 85 83 81 79 78 76 74 72 70 69 68 67 67 67 67 69 70 70 70 70 70 69 70 70 69 68 67 67 67 66 63 62 60 59 57 55 53 51
87 87 86 84 82 80 78 76 75 73 72 71 70 69 67 66 65 64 64 64 67 67 67 67 66 67 69 68 67 67 66 66 65 64 62 60 60 58 56 55 53 51
87 85 83 81 80 78 76 74 73 72 70 69 69 69 68 67 65 64 62 61 62 64 65 64 64 66 68 67 66 65 65 64 63 61 60 59 59 57 56 55 53 51
87 85 83 80 79 78 76 73 72 71 70 68 68 67 67 66 65 63 61 59 59 61 62 61 61 64 65 64 63 64 64 63 61 59 58 58 57 56 55 55 53 51
87 84 81 79 77 77 75 72 71 70 68 67 66 65 65 65 64 62 60 58 57 57 58 59 60 61 62 63 62 62 62 61 58 57 56 56 56 55 55 55 53 50
85 82 80 78 75 74 73 72 71 69 67 66 64 63 62 62 62 60 58 57 54 53 55 58 60 60 60 62 61 59 59 59 57 55 55 55 55 55 54 54 52 50
82 79 78 76 75 73 72 70 69 67 66 64 63 61 60 60 58 56 57 56 50 50 53 56 59 58 57 58 59 56 55 55 55 54 53 54 54 53 53 52 51 49
80 78 76 74 73 72 71 69 67 65 64 63 61 59 58 57 54 53 54 52 47 48 51 54 57 56 54 55 56 55 53 53 54 53 52 53 53 52 52 52 50 49
77 76 74 73 71 70 69 68 66 64 62 61 59 57 56 54 52 51 51 50 45 46 49 52 55 55 55 54 53 53 52 51 52 52 52 52 52 51 51 51 50 49
75 74 73 71 70 69 68 66 64 62 60 59 58 56 54 52 50 50 50 49 46 46 49 50 52 55 57 56 52 52 53 51 49 50 51 51 50 50 50 50 50 49
75 74 72 71 70 68 66 65 63 60 58 57 56 55 53 51 50 50 51 50 47 46 49 50 50 51 56 57 53 52 53 51 47 47 49 49 49 49 49 49 49 48
75 74 72 71 69 68 65 63 61 59 57 55 54 52 51 49 49 51 51 50 47 45 46 49 49 49 51 54 53 52 52 50 45 44 47 48 47 48 47 47 48 47
74 73 71 70 68 67 64 61 58 57 55 55 53 50 48 48 49 51 51 49 47 44 43 45 48 49 48 50 52 51 50 47 42 41 44 44 45 46 46 46 47 46
72 72 70 68 66 65 62 59 56 54 53 53 52 49 46 47 50 52 51 48 46 43 41 42 45 46 47 47 49 49 48 45 40 39 42 42 43 45 46 46 45 45
71 70 69 67 65 62 59 56 53 51 51 50 50 48 46 47 50 51 48 45 43 42 41 40 41 43 45 44 44 46 47 44 39 38 40 41 42 43 45 45 44 43
69 68 67 66 63 60 57 54 51 49 48 47 47 46 44 46 50 49 45 41 39 39 38 37 38 40 41 40 41 43 45 43 38 38 39 41 41 42 42 43 43 43
68 67 65 64 62 58 54 52 49 47 46 45 44 43 43 45 47 44 40 37 35 34 34 34 37 38 36 37 40 42 41 39 37 37 39 40 41 40 40 41 42 42

ECMWFNIL_500_spd_075.txt.gz
Wind_Speed
59 60 60 61 62 63 64 65 67 68 68 70 71 71 72 72 73 74 75 76 78 80 80 81 82 84 85 87 88 89 89 88 88 89 89 89 89 88 88 87 87 87
58 60 61 62 63 64 66 67 69 70 71 72 73 73 73 74 74 75 76 78 80 83 85 86 87 89 90 92 93 92 91 90 89 88 89 88 88 87 86 85 85 85
59 61 63 64 66 67 69 70 72 73 74 75 75 76 76 76 77 78 79 81 83 86 88 91 92 94 96 96 96 95 93 90 89 88 87 85 84 83 82 81 81 81
61 62 64 66 68 70 72 73 75 76 77 78 78 78 79 80 80 81 83 84 86 88 91 94 97 99 100 99 97 95 92 89 87 86 84 82 80 78 76 76 76 76
63 65 67 69 71 73 74 76 77 78 79 80 80 81 82 83 84 85 86 88 89 91 93 97 100 101 101 98 95 91 88 86 83 82 80 77 75 73 72 71 71 71
65 67 68 70 72 74 76 77 79 80 80 81 82 83 85 86 87 88 90 91 92 93 96 99 101 100 97 94 90 86 83 81 79 77 75 73 71 69 68 67 67 67
66 68 70 72 73 76 77 79 80 81 83 83 85 86 87 89 90 91 92 93 94 96 99 100 99 94 90 87 85 82 78 76 74 73 71 69 68 67 66 65 64 64
68 70 72 74 76 78 79 81 82 83 84 85 87 88 89 91 92 93 94 96 97 99 100 98 93 87 82 80 79 77 74 71 70 69 67 66 65 64 64 63 62 62
70 72 74 76 78 79 81 82 83 84 85 87 88 89 91 93 94 96 97 99 100 100 98 93 86 79 76 74 73 73 70 67 66 65 64 63 63 62 61 61 60 60
73 74 76 78 79 81 82 84 85 86 87 88 90 91 93 95 96 98 100 101 100 98 93 86 78 73 71 70 69 69 67 64 63 62 61 61 60 60 59 59 58 58
75 77 78 80 81 82 84 85 86 88 89 90 92 93 95 96 98 99 100 100 98 93 87 80 73 69 67 66 66 67 64 61 60 60 59 59 58 58 57 57 57 57
77 79 80 82 83 85 86 87 88 90 91 92 94 96 97 98 99 100 99 97 93 87 81 76 70 66 65 63 63 64 62 58 58 58 57 57 56 55 55 55 55 56
79 80 82 84 85 87 89 90 91 92 93 94 96 98 99 100 100 99 97 92 86 80 76 73 69 65 62 60 60 62 60 56 56 56 55 55 54 53 53 53 54 55
80 81 84 86 88 90 91 93 94 94 95 96 98 99 100 100 99 97 93 87 81 76 73 72 68 63 60 58 58 59 58 55 54 54 53 53 52 52 52 52 52 53
81 84 86 88 90 92 94 96 97 97 98 99 100 100 101 100 98 94 89 83 78 74 72 70 66 62 59 57 56 56 56 54 52 51 51 51 50 50 50 50 50 49
83 86 88 91 93 95 97 98 99 100 101 101 101 101 100 99 95 90 85 80 77 74 71 68 64 60 57 55 54 54 54 53 51 49 49 49 48 48 48 48 47 46
87 89 91 94 96 98 99 101 102 102 103 103 102 102 100 97 92 87 81 78 76 72 69 66 62 57 55 53 53 53 53 53 50 47 47 47 46 45 45 45 45 44
90 92 94 97 99 100 102 103 104 105 105 104 104 102 100 95 89 83 78 75 73 69 66 63 59 55 53 51 51 51 51 51 50 46 44 45 44 43 43 43 42 42
94 96 97 99 101 103 105 106 106 106 106 106 105 102 98 92 85 80 75 71 69 65 62 59 55 53 51 49 49 50 49 49 49 45 42 42 42 42 42 41 40 40
97 98 100 102 104 105 107 107 108 107 107 106 104 100 94 87 80 75 71 67 64 60 58 54 50 49 49 48 47 48 47 47 47 43 40 40 41 41 40 39 39 38
99 101 102 104 106 107 108 108 108 107 106 104 100 94 88 81 76 71 66 62 59 56 53 49 46 46 47 47 46 45 45 45 44 41 39 38 38 39 38 38 38 38
102 103 105 107 108 109 109 109 108 106 103 99 94 87 81 76 71 65 61 58 55 52 49 44 42 43 44 45 44 42 42 42 42 39 37 36 36 37 37 37 38 38
104 106 108 109 110 110 110 108 106 102 98 93 87 80 74 70 65 60 56 54 50 48 44 40 39 40 42 42 41 40 40 40 39 38 36 34 34 36 37 37 38 38
106 108 110 110 110 110 108 105 101 96 90 85 80 74 69 64 59 54 51 49 46 44 40 37 36 37 38 38 38 38 38 38 37 36 33 32 34 36 36 38 39 39
108 109 110 110 109 107 103 99 94 88 82 76 72 68 63 58 54 49 46 44 42 39 36 35 34 34 35 36 35 35 36 35 35 33 31 32 34 36 36 38 40 39
108 109 109 107 105 101 96 91 86 80 74 69 65 62 58 53 49 45 41 39 37 35 33 33 31 31 33 33 33 33 33 33 32 31 31 33 35 35 35 38 39 37

ECMWFNIL_500_spd_078.txt.gz
Wind_Speed
82 81 78 75 71 68 66 66 66 66 67 68 68 68 69 70 70 71 72 73 74 74 75 76 77 77 78 78 79 80 81 81 81 81 82 82 82 83 84 86 88 89
81 77 73 69 66 65 65 65 66 67 67 68 69 70 70 71 72 73 74 75 76 76 77 78 79 79 80 80 81 82 82 82 82 83 84 84 84 85 86 88 90 92
76 71 67 65 64 64 64 65 66 67 68 69 70 71 71 72 73 74 75 76 77 78 79 80 80 81 82 82 83 83 83 83 84 85 86 87 87 88 89 90 92 94
69 66 64 63 64 65 66 67 68 69 69 70 71 72 74 75 75 76 77 78 79 80 81 81 82 83 83 84 85 85 85 85 85 87 88 89 89 90 92 93 94 96
64 63 64 64 66 67 68 68 69 70 72 73 74 75 76 77 77 78 79 80 81 82 82 83 84 84 85 86 87 87 87 87 87 88 90 90 90 91 94 95 97 98
63 63 64 66 67 68 69 70 72 73 74 75 76 77 78 78 79 79 80 81 82 83 83 84 85 86 87 88 88 89 89 89 88 89 90 90 90 92 94 96 99 99
63 64 65 67 68 69 71 72 74 75 76 76 77 78 79 79 80 81 82 82 83 84 85 86 87 88 89 90 90 90 90 90 90 90 90 90 91 92 94 96 98 98
64 66 67 69 70 72 73 74 75 76 77 78 78 79 80 81 82 82 83 84 85 86 87 88 89 90 91 92 92 91 91 91 91 91 91 91 91 92 93 94 94 94
66 68 69 71 72 73 75 76 77 78 79 79 80 80 81 82 83 84 84 85 86 88 89 91 92 93 94 94 94 93 93 92 92 92 92 92 92 92 91 89 89 88
69 70 71 73 74 75 76 78 78 79 80 81 82 82 82 83 84 85 86 87 88 90 92 93 95 95 96 95 96 96 96 95 94 94 94 93 92 90 86 82 82 81
71 72 73 75 76 77 79 80 81 82 83 83 84 84 84 85 85 87 88 90 92 93 95 96 97 98 98 97 98 98 99 98 97 96 95 93 90 85 79 76 76 75
74 75 77 78 79 80 81 82 83 84 85 85 85 86 86 86 87 89 91 93 95 97 98 99 99 100 100 100 100 100 101 100 99 97 94 91 85 78 73 71 72 72
77 78 80 80 81 82 83 84 84 85 86 86 86 87 88 89 90 92 94 96 98 99 100 101 101 102 102 102 102 102 102 101 99 96 91 85 78 72 69 69 69 69
79 80 81 82 82 83 84 84 85 85 86 87 87 89 90 92 94 96 97 99 100 101 102 103 104 104 104 105 104 103 102 100 96 91 85 79 72 67 66 66 66 66
79 80 81 81 82 83 84 84 85 86 86 88 89 92 94 96 98 100 101 101 102 103 104 105 105 106 106 106 105 102 99 95 90 84 78 73 68 64 63 63 64 62
79 79 80 81 82 82 83 84 85 86 88 90 92 95 97 99 101 102 103 104 105 105 105 106 107 107 106 104 101 97 92 86 81 76 72 68 64 61 60 60 60 58
78 78 79 80 82 83 84 85 87 89 91 93 95 97 99 101 103 104 105 106 107 107 107 107 107 105 102 97 92 87 82 78 73 68 66 63 60 57 57 57 56 55
78 78 79 80 82 84 85 87 90 92 94 96 98 99 101 103 105 106 107 108 109 109 108 106 103 98 91 86 81 77 73 70 66 62 60 58 56 54 53 53 53 52
78 79 80 82 84 86 88 90 92 94 96 99 100 102 103 105 106 107 108 109 108 107 104 99 93 86 81 76 72 68 65 62 60 58 56 53 52 50 49 49 50 50
80 81 82 84 86 88 90 92 95 97 99 101 103 104 105 106 107 107 107 105 102 99 94 88 82 76 71 67 64 60 58 57 55 54 51 48 46 46 46 46 47 47
82 83 84 86 89 91 93 96 98 100 102 103 104 105 106 106 106 104 101 96 92 88 84 79 72 66 62 59 57 54 52 51 50 49 47 44 42 43 43 43 44 45
84 86 87 90 92 95 97 98 100 101 103 104 104 104 104 102 99 96 91 87 83 79 75 69 62 57 54 53 51 49 47 46 45 44 43 40 39 40 40 40 42 44
88 90 92 94 95 97 99 100 101 102 102 103 102 101 97 93 89 86 82 79 74 69 64 59 54 50 49 48 46 44 42 41 41 40 39 38 37 38 38 38 40 42
92 94 96 97 98 99 100 100 100 100 98 97 96 93 89 84 81 78 73 69 65 61 57 53 48 45 44 43 41 39 37 37 37 37 36 35 35 35 35 37 38 40
95 97 97 98 99 99 98 98 96 94 92 89 87 85 82 78 74 70 64 60 58 55 52 48 43 39 38 38 36 34 33 33 33 33 33 32 32 33 34 35 36 37
96 97 97 97 97 96 94 92 90 88 85 83 80 78 74 70 66 62 58 55 53 50 46 43 38 34 32 32 31 29 29 30 30 30 30 30 30 31 32 33 34 35

ECMWFNIL_500_spd_081.txt.gz
Wind_Speed
83 83 83 83 82 82 82 82 82 82 82 82 82 82 82 81 80 78 76 74 74 73 73 74 75 76 77 77 78 78 78 78 79 79 80 80 80 81 81 81 82 83
83 83 83 83 83 83 83 82 82 82 82 83 82 82 81 80 78 76 75 74 74 74 75 76 77 78 79 80 81 81 81 81 82 82 83 82 82 83 82 82 83 84
84 84 83 83 83 82 82 81 81 81 81 81 81 80 79 77 76 75 74 75 75 76 77 78 78 80 81 82 83 83 84 84 84 84 85 85 84 84 84 84 85 85
82 82 82 81 81 80 79 79 78 78 78 77 77 76 76 75 75 74 75 76 77 77 78 79 80 81 82 83 84 85 85 86 86 87 87 87 87 87 86 86 87 87
80 80 79 79 78 77 76 76 75 75 74 74 74 74 74 74 75 75 76 77 78 79 80 81 82 83 84 85 86 86 87 88 88 89 90 89 89 89 88 89 89 89
78 78 77 76 75 74 74 73 73 73 73 73 73 74 75 75 76 77 78 79 80 81 81 82 83 84 85 86 87 88 89 89 90 90 91 91 90 90 90 91 91 90
77 76 75 75 74 73 72 72 73 73 73 74 74 75 76 77 79 80 81 82 82 83 83 84 85 85 87 88 89 90 91 91 92 92 93 93 92 92 92 92 93 92
76 75 75 74 74 73 73 73 74 75 76 76 77 78 79 80 81 82 83 84 85 85 86 86 87 88 89 90 91 92 93 93 94 94 95 95 95 94 93 94 94 94
76 76 75 75 75 75 75 75 76 77 78 79 80 81 82 83 85 86 86 87 88 88 89 90 91 91 92 93 94 95 95 95 96 97 97 97 97 96 96 96 96 96
76 76 76 76 76 77 77 77 78 79 79 80 81 82 83 85 86 88 89 89 90 91 92 92 93 94 94 95 96 97 97 97 97 98 99 99 98 98 98 98 99 99
77 76 76 76 77 77 78 78 79 80 80 81 82 83 84 85 86 87 89 89 90 91 92 92 93 94 94 95 96 97 98 98 98 99 99 100 100 100 100 101 102 102
76 76 76 76 77 77 78 78 79 80 80 81 82 82 83 84 85 86 87 88 88 89 90 90 91 92 93 93 94 95 96 97 98 99 99 100 101 102 103 104 105 105
75 76 76 76 76 76 77 77 78 78 79 79 80 81 81 82 82 83 84 85 86 86 87 88 89 90 91 92 93 94 96 97 99 100 101 102 103 104 105 106 107 107
74 74 74 74 74 75 75 75 76 76 77 78 78 79 80 80 81 82 83 84 85 86 87 88 89 90 91 93 94 96 98 99 101 102 103 104 105 106 107 107 108 108
71 72 72 72 73 73 74 74 75 76 76 77 78 79 80 81 82 83 84 85 86 87 89 90 92 93 94 96 98 99 101 102 104 105 106 107 107 107 108 108 109 109
69 70 71 72 73 73 74 75 76 77 77 78 79 80 81 82 83 85 86 88 89 90 92 94 95 97 98 100 101 103 104 105 106 106 107 108 109 109 109 109 109 109
70 70 71 73 74 75 76 77 77 78 79 80 81 82 84 85 87 88 90 92 93 94 95 96 98 99 101 102 103 105 107 108 108 108 108 109 109 109 108 107 106 104
72 73 74 75 76 77 78 79 80 81 82 83 84 86 87 89 91 92 93 95 97 97 98 99 100 102 103 104 105 106 107 108 108 107 107 106 105 103 101 98 95 92
75 76 76 78 79 80 81 82 83 85 87 88 89 90 91 93 94 95 96 98 99 100 100 101 102 103 104 103 103 102 102 101 101 99 98 96 93 90 88 85 81 78
78 78 79 80 81 83 84 86 87 89 91 92 93 93 94 95 96 97 98 99 100 101 101 100 100 100 99 96 94 93 91 90 89 88 86 84 81 78 75 72 69 66
80 80 81 83 84 86 88 89 91 92 93 94 95 95 96 96 97 98 98 98 98 98 97 96 93 92 89 87 85 84 82 80 79 77 75 72 69 66 63 59 57 55
82 83 84 86 88 89 90 91 92 93 94 95 95 95 95 95 95 95 94 93 92 92 91 88 85 83 80 78 76 74 71 69 67 65 63 60 58 55 52 50 48 47
86 87 88 89 90 91 91 92 93 93 93 94 94 92 91 90 90 89 88 87 86 84 83 79 75 73 71 67 64 62 60 59 57 55 53 51 48 46 44 42 41 40
88 89 90 90 91 91 91 91 91 91 90 90 89 88 86 84 83 82 80 79 78 77 74 71 66 62 59 56 54 53 53 51 49 47 45 43 40 38 37 35 34 34
90 90 90 90 90 89 89 88 87 86 86 85 84 82 80 77 76 75 73 71 70 68 65 61 57 53 50 48 47 46 45 44 42 39 36 33 31 30 29 29 29 29
89 89 88 87 87 85 84 84 83 82 81 79 77 75 73 71 70 69 68 65 63 59 56 53 50 46 43 40 39 39 38 37 34 31 27 25 24 24 24 24 24 25

ECMWFNIL_500_spd_084.txt.gz
Wind_Speed
87 87 88 88 89 89 89 89 89 89 88 88 88 87 87 86 86 85 85 84 84 83 83 83 82 82 82 82 83 83 84 84 83 82 82 81 81 81 81 81 82 83
88 88 89 89 90 90 90 90 90 90 89 89 89 88 88 87 87 86 85 85 84 84 83 83 83 83 82 82 82 82 83 83 83 82 82 82 82 82 82 82 83 84
89 89 90 90 90 90 90 90 90 90 90 89 89 89 88 88 87 86 86 85 85 84 83 83 83 83 83 82 82 82 82 82 82 82 83 83 83 83 83 84 85 86
89 90 90 90 90 90 90 90 90 90 89 89 89 89 88 88 87 86 86 85 85 84 83 83 83 82 82 82 82 82 82 82 82 83 83 83 84 85 86 86 87 87
89 90 90 90 90 90 90 90 89 89 88 88 87 87 86 86 86 85 85 85 84 84 83 83 83 82 82 82 82 82 83 83 83 84 85 85 86 87 88 89 89 89
89 89 89 89 89 89 88 88 87 86 86 85 84 84 84 83 83 83 83 83 83 83 83 82 82 83 83 83 83 83 83 84 85 86 87 87 87 88 89 91 91 91
89 88 88 87 86 85 85 84 84 83 83 82 82 82 82 81 81 81 82 82 82 82 82 82 82 83 83 84 84 84 85 86 87 88 88 89 89 90 91 93 94 94
87 86 85 84 83 82 82 81 80 80 80 80 80 80 80 80 80 80 80 81 81 81 82 82 83 83 84 84 85 85 86 87 88 89 90 91 91 92 93 94 96 96
84 83 82 81 80 79 79 79 78 78 78 78 78 78 79 79 79 80 80 80 80 81 81 82 82 83 84 84 85 86 86 87 88 90 91 91 92 93 94 96 97 98
80 79 78 78 77 77 76 76 76 76 76 76 76 77 77 77 78 78 78 79 79 80 80 81 82 82 83 84 85 85 86 87 88 89 90 91 92 93 94 96 97 98
75 74 74 74 74 74 74 74 74 74 74 75 75 75 75 76 76 76 77 77 77 78 78 79 80 80 81 82 83 84 85 85 86 87 88 89 90 91 92 93 95 96
71 71 71 71 72 72 72 73 73 73 74 74 74 75 75 75 76 76 77 77 77 78 78 79 80 80 81 81 82 83 84 84 85 86 86 87 88 88 90 91 92 93
70 70 70 71 71 72 72 73 73 74 74 75 76 76 77 77 77 77 78 78 79 79 79 80 80 81 81 82 83 84 84 85 85 86 87 87 87 88 89 89 90 91
70 70 71 71 72 73 73 74 75 75 76 77 77 78 78 78 79 79 79 79 80 80 80 81 82 82 83 84 85 85 86 87 88 88 89 89 89 89 90 91 91 92
72 72 73 73 74 75 75 76 76 77 77 78 78 79 79 79 80 80 80 81 81 82 82 83 84 85 86 87 88 89 90 91 91 92 92 92 92 92 92 93 94 95
74 75 75 76 77 77 78 78 79 79 79 80 80 81 81 81 82 82 83 83 84 84 85 86 87 88 90 91 92 93 94 95 95 95 95 95 95 95 95 96 97 98
78 78 78 79 80 80 81 81 82 82 82 83 83 84 84 84 85 86 86 87 88 88 89 90 90 92 94 95 95 97 98 99 99 98 98 98 98 99 99 99 99 100
80 81 81 82 82 83 83 84 84 85 85 86 86 87 87 88 88 89 89 90 91 92 92 92 93 95 96 97 98 98 99 101 101 101 101 101 101 101 102 102 102 102
83 83 83 84 85 86 86 87 87 88 88 89 89 89 89 90 90 91 91 92 93 93 94 94 94 95 96 97 98 98 99 100 101 102 101 101 101 101 102 102 102 102
86 86 86 87 88 88 89 89 90 90 90 91 91 90 90 90 90 90 90 91 91 92 92 91 91 91 92 93 93 93 94 94 95 95 94 94 94 93 93 93 93 93
88 89 89 89 89 90 90 90 90 90 90 90 89 89 89 88 88 87 86 86 86 86 86 85 84 85 85 86 86 85 85 85 85 84 84 84 83 83 82 81 80 79
89 89 89 88 88 88 88 87 87 87 87 87 86 85 84 83 83 82 81 81 80 80 80 79 77 78 79 78 78 78 78 78 77 76 75 74 73 72 71 69 68 67
87 87 87 86 86 85 85 84 84 83 83 83 82 80 79 78 78 77 76 75 75 74 75 74 73 72 73 72 71 71 71 70 69 67 66 64 62 61 60 58 57 55
86 86 86 86 85 84 83 82 81 80 80 79 78 77 75 73 73 71 70 69 69 69 70 70 68 67 66 65 64 63 62 61 60 58 56 54 51 49 49 48 47 45
86 85 85 84 82 81 79 78 77 76 75 74 73 72 70 68 67 66 64 63 63 63 64 64 63 61 59 58 56 55 54 52 51 50 47 44 41 39 39 39 38 37
82 82 81 79 78 76 74 72 72 71 70 68 67 66 64 63 61 61 59 57 56 57 58 58 57 54 52 51 49 47 45 44 43 42 39 36 33 32 32 32 32 31

ECMWFNIL_500_spd_087.txt.gz
Wind_Speed
88 89 90 90 91 92 93 93 94 94 95 95 95 96 96 96 96 96 96 96 96 96 96 96 96 96 95 95 94 94 93 92 92 92 91 91 90 90 89 88 88 87
91 92 92 93 93 94 95 95 95 96 96 96 96 96 96 96 97 97 97 96 96 96 96 96 96 96 96 96 95 95 94 93 93 93 92 92 92 91 91 90 90 89
92 92 93 93 93 94 94 94 95 95 95 95 95 95 95 95 95 95 95 95 94 94 94 94 94 94 94 94 94 94 94 93 93 93 92 91 91 91 91 91 91 90
92 92 92 92 92 92 92 92 92 92 92 92 92 92 92 92 92 92 91 91 91 90 90 90 90 90 90 91 91 91 91 91 91 91 91 91 90 90 90 91 91 91
91 90 90 90 90 89 89 88 88 87 87 86 86 86 86 86 86 86 86 86 86 86 86 86 86 86 86 86 87 87 88 88 88 89 89 89 89 89 89 90 90 90
86 86 85 85 84 84 83 82 82 82 81 81 80 80 80 80 80 80 80 80 81 81 81 81 81 81 82 82 83 83 84 84 85 86 86 86 87 87 87 88 88 89
81 80 80 80 79 79 79 79 78 78 78 77 77 77 76 76 76 75 75 75 75 75 76 76 77 77 78 78 79 79 80 81 82 83 83 84 84 85 86 87 87 87
78 77 77 77 77 77 77 77 77 76 76 76 76 76 76 75 75 74 74 73 73 73 73 73 74 74 74 75 75 76 76 77 78 79 80 81 82 83 84 85 86 86
75 75 75 75 75 75 75 76 76 76 76 76 76 76 76 76 76 76 75 75 74 74 74 74 74 74 74 74 74 74 74 75 76 77 77 78 79 80 81 83 84 84
73 73 74 74 74 75 75 76 76 76 77 77 77 77 77 77 78 77 77 77 77 77 76 76 76 76 76 76 76 76 76 75 75 76 76 76 77 77 79 80 81 81
73 73 74 74 75 76 76 77 77 78 78 79 79 79 79 79 80 80 79 79 79 79 79 79 79 79 79 79 79 79 79 78 78 78 77 78 77 77 78 79 79 79
75 75 76 77 77 78 79 79 80 80 81 81 82 82 82 82 82 82 82 82 82 82 82 82 81 82 81 82 82 82 82 81 81 81 80 80 80 79 80 80 80 80
78 78 79 80 80 81 82 82 83 83 84 84 84 85 85 85 85 85 85 85 85 85 85 84 84 84 84 85 85 85 85 84 84 84 83 83 82 82 82 82 82 82
80 81 82 82 83 84 84 85 85 86 86 87 87 87 88 88 87 87 87 87 87 87 87 87 87 87 87 87 87 87 87 87 87 87 86 85 85 84 84 84 84 84
82 83 84 84 85 86 86 87 87 88 88 89 90 90 90 90 90 90 90 90 90 90 89 89 89 89 90 90 90 90 90 90 90 89 89 88 87 87 86 86 87 87
83 83 84 84 85 86 87 87 88 88 89 89 90 91 91 91 91 92 92 92 92 92 92 92 92 92 93 93 93 94 94 94 93 92 92 91 90 89 89 89 90 90
81 81 81 82 83 84 84 85 86 86 87 87 88 88 88 89 89 90 90 90 91 91 91 91 91 92 93 93 94 95 96 97 96 95 95 94 93 93 93 93 93 93
77 78 79 80 81 82 83 83 84 84 85 85 85 85 85 85 86 86 86 87 87 87 87 87 87 88 89 90 90 91 93 95 96 96 95 95 95 96 95 95 96 96
76 77 78 79 80 81 81 82 82 82 82 82 81 81 81 81 81 81 82 82 83 83 82 82 82 83 84 84 85 86 87 89 91 92 93 93 93 94 95 95 95 95
76 77 78 78 79 79 79 79 78 78 77 77 76 76 76 76 76 76 76 76 77 77 77 75 75 77 78 78 80 80 81 83 84 86 86 87 87 87 88 88 89 90
76 76 77 77 77 77 76 75 74 73 73 73 72 72 72 71 70 70 69 68 68 69 69 67 67 69 71 72 73 74 75 77 78 79 79 79 79 79 79 79 80 81
75 76 76 76 75 74 73 72 71 70 70 70 69 67 66 64 63 61 60 59 59 60 61 59 59 62 64 65 66 67 69 70 71 71 72 71 70 70 70 71 72 73
76 76 76 75 74 72 71 69 68 68 68 67 64 61 58 56 54 52 52 52 52 52 54 53 53 55 57 57 58 60 62 63 63 63 63 62 61 61 62 63 63 64
76 77 76 75 73 71 69 67 67 66 64 62 59 55 52 50 48 46 45 46 47 48 49 49 48 48 49 50 51 53 54 55 55 55 54 53 53 54 54 54 55 56
76 77 76 74 71 68 67 66 65 63 60 57 54 52 49 46 45 43 42 42 44 44 45 45 44 42 43 44 45 45 47 47 47 47 47 46 46 45 44 45 46 47
76 76 75 72 69 66 65 65 63 59 56 53 51 49 46 45 43 42 39 38 39 40 41 42 41 38 38 40 40 39 40 41 42 42 41 39 38 36 35 36 39 39

ECMWFNIL_500_spd_090.txt.gz
Wind_Speed
91 92 93 94 95 96 96 97 97 98 98 99 99 99 99 100 100 100 100 100 100 101 101 101 101 101 101 101 102 102 102 102 102 102 102 102 102 102 102 102 102 102
92 92 93 93 94 94 95 95 96 96 96 97 97 97 97 97 98 98 98 98 98 98 98 98 98 98 98 99 99 100 100 100 100 101 101 101 102 102 103 103 104 104
90 90 90 90 90 90 90 90 91 91 91 91 91 91 92 92 92 92 92 92 92 92 92 92 92 93 93 93 94 94 95 95 96 97 97 98 99 99 100 101 102 103
84 84 84 84 84 84 84 84 84 84 85 85 85 85 85 85 85 86 86 86 86 85 86 86 86 87 87 87 88 88 89 89 90 91 92 92 94 95 96 97 98 100
77 77 78 78 78 78 79 79 80 80 81 81 81 81 82 82 82 82 82 82 82 82 82 82 82 83 83 83 84 84 84 84 85 86 86 87 88 89 90 92 93 94
73 74 74 75 75 76 77 77 78 78 79 80 80 80 81 81 81 81 81 81 81 81 81 81 81 81 81 81 81 81 81 82 82 82 82 83 83 84 85 87 88 89
72 73 74 75 75 76 77 77 78 79 79 80 80 81 81 81 81 82 82 82 82 82 82 82 82 81 82 81 81 81 81 81 81 81 81 81 81 81 82 83 84 85
73 74 75 75 76 77 78 79 79 80 81 81 82 82 83 83 83 83 84 84 84 84 84 84 84 83 83 83 82 82 82 82 82 82 81 81 80 80 80 81 81 81
74 75 76 77 78 79 80 80 81 82 83 83 84 84 85 86 86 86 86 86 86 86 86 87 86 86 86 86 85 85 84 84 84 84 83 82 82 81 81 81 81 80
75 76 77 78 79 80 80 81 82 83 84 85 85 86 87 87 88 88 89 89 89 89 89 89 89 89 88 88 88 88 88 87 87 86 86 85 84 83 83 83 82 81
76 77 78 78 79 80 81 82 82 83 84 85 85 86 87 87 88 89 90 90 91 91 91 91 91 91 91 91 91 91 91 90 90 89 89 88 87 87 86 85 85 83
76 77 77 78 79 79 79 80 80 81 81 82 83 83 84 85 86 87 88 88 89 90 91 91 92 92 93 93 93 94 94 93 93 92 92 91 90 90 89 89 88 86
74 74 74 74 74 74 75 75 76 77 78 79 81 81 82 83 84 84 85 86 87 87 88 89 90 90 91 92 93 94 95 95 95 95 95 94 93 92 91 91 90 89
69 69 68 69 70 71 72 74 75 77 78 79 80 81 82 82 83 83 83 84 84 84 85 85 86 87 87 89 90 92 93 95 95 96 97 96 96 95 94 93 92 91
63 64 66 68 70 71 73 74 76 77 78 79 80 80 81 81 81 81 81 81 81 81 81 81 82 82 83 84 86 87 89 91 92 94 95 96 96 96 95 95 94 93
61 64 66 68 70 72 73 74 75 76 77 77 78 78 78 78 78 78 78 77 77 77 77 77 77 78 78 80 81 83 85 86 88 89 91 92 93 94 94 94 95 95
62 64 67 68 70 70 71 72 73 74 75 75 75 74 74 74 73 72 72 72 72 71 71 72 72 73 74 75 77 79 81 82 83 83 85 86 87 88 90 91 92 94
62 65 67 68 69 69 70 71 71 72 73 73 72 71 70 69 68 68 67 67 67 67 67 67 68 69 70 71 72 74 76 78 79 79 79 80 80 82 84 86 88 90
63 65 66 67 68 68 69 70 71 71 72 71 69 68 66 65 64 64 64 64 64 63 62 62 62 62 63 64 66 67 68 70 73 74 73 73 74 76 78 80 82 84
63 65 66 67 67 68 69 70 70 71 70 69 67 65 64 62 62 61 60 59 58 57 56 55 54 55 55 56 58 59 60 62 64 65 65 65 66 68 70 72 74 76
63 65 66 67 68 68 69 70 70 70 69 67 65 63 62 60 59 57 55 53 52 51 50 48 48 49 50 50 52 53 54 55 56 57 57 58 58 59 61 63 65 68
63 65 66 67 68 69 69 70 70 70 68 66 63 62 60 58 55 52 50 48 47 47 46 44 44 46 47 47 48 48 49 50 50 50 51 51 51 51 53 55 57 59
63 65 66 68 69 70 70 71 71 70 68 66 63 60 57 54 51 48 45 44 44 44 44 42 42 43 44 44 43 44 45 46 45 45 45 45 45 46 48 49 50 52
63 65 67 68 70 71 71 72 72 71 69 66 63 60 55 51 48 44 42 41 41 41 41 41 39 39 39 39 40 41 42 43 42 41 41 41 42 43 44 45 45 46
62 65 67 69 70 71 72 73 73 72 70 67 64 60 54 49 45 42 38 38 38 38 39 40 38 36 35 36 36 38 39 40 39 39 38 38 40 40 40 41 42 43
62 64 67 69 71 72 73 73 73 73 71 69 65 60 55 48 44 40 36 35 35 36 37 39 38 35 33 33 34 35 37 38 38 37 37 38 38 37 35 36 38 39

ECMWFNIL_500_spd_093.txt.gz
Wind_Speed
79 79 80 81 81 82 83 84 84 85 86 87 87 88 89 89 89 90 91 92 93 94 95 96 97 98 99 100 101 102 103 103 104 105 105 106 106 106 107 107 107 107
74 74 74 75 75 76 77 78 78 79 79 80 81 81 82 82 82 83 83 84 85 86 87 88 89 90 91 92 93 94 95 96 97 99 100 101 102 103 103 104 105 106
73 73 73 74 74 75 75 76 76 77 77 78 79 79 80 80 80 80 81 81 81 82 83 83 84 85 86 87 88 88 89 90 90 92 93 94 95 96 97 98 100 101
73 73 74 74 75 75 76 76 77 77 78 78 79 80 80 81 81 81 82 82 82 83 83 84 84 85 85 86 86 87 87 87 87 88 89 89 90 91 91 92 93 94
73 74 74 75 75 76 77 77 77 78 79 79 80 81 81 82 82 83 83 84 84 85 85 86 86 87 87 87 88 88 88 88 88 88 88 88 88 88 88 88 89 89
73 74 74 75 76 77 77 78 78 79 80 80 81 82 82 83 84 84 85 85 86 87 87 88 88 89 89 89 90 89 89 90 90 90 90 89 89 89 88 88 88 88
74 74 75 75 76 76 77 77 78 78 79 80 80 81 82 83 84 84 85 86 87 88 89 90 90 91 91 92 92 92 92 92 92 92 92 92 91 91 90 90 89 89
74 74 74 75 75 75 76 76 76 76 77 77 78 79 80 80 82 83 84 85 86 87 89 90 91 92 93 93 94 94 95 95 95 95 95 94 94 93 93 93 92 91
74 74 74 73 73 73 73 73 73 73 73 74 74 75 76 77 78 79 80 81 82 83 85 86 87 88 89 91 92 93 94 95 96 97 97 97 96 96 95 95 94 93
73 72 72 71 71 70 70 69 69 68 68 69 69 70 72 73 74 76 77 79 80 81 82 83 84 85 86 87 88 90 91 92 93 94 96 96 97 97 97 97 97 95
72 71 70 69 68 66 65 63 63 63 64 65 67 69 70 72 74 75 77 78 79 80 81 82 83 83 84 85 86 87 88 89 90 91 92 93 94 95 96 97 98 97
70 69 67 65 63 61 59 59 59 60 63 65 67 69 70 72 73 74 75 76 77 78 79 79 80 80 81 82 83 84 85 86 87 88 89 89 90 91 92 94 95 96
68 66 63 60 57 55 55 56 58 61 63 65 67 68 69 70 70 71 72 74 75 75 76 76 76 77 77 78 79 81 82 83 83 83 84 85 86 87 88 90 91 92
64 60 57 54 53 53 54 56 58 61 63 65 66 67 68 68 69 70 71 72 73 73 74 74 74 74 74 75 76 77 78 79 78 79 79 79 80 81 82 84 85 87
58 54 51 50 51 52 54 56 58 61 63 65 66 67 68 68 69 70 71 72 72 72 72 72 72 71 71 72 73 73 74 74 74 74 74 74 75 75 76 77 79 81
52 49 48 48 50 52 54 56 58 61 63 64 66 67 68 69 69 70 71 72 72 71 71 70 69 68 68 69 69 70 70 70 70 69 69 69 69 69 70 71 73 75
48 46 47 48 50 52 53 56 58 60 62 64 66 68 69 70 70 71 72 72 72 70 69 68 66 65 65 65 65 66 66 66 66 65 64 64 63 63 64 66 68 70
46 45 46 48 50 52 53 56 58 60 62 64 66 68 69 70 71 71 72 72 71 70 68 66 64 62 62 61 61 61 61 62 62 60 58 57 56 57 58 59 61 64
45 45 47 48 50 52 53 55 58 60 62 65 66 68 70 70 71 72 72 72 71 69 67 64 61 60 59 58 58 57 56 57 57 55 53 51 50 51 52 53 54 56
44 45 47 49 50 52 53 55 58 60 63 65 67 69 70 71 71 72 72 72 71 68 66 62 59 58 57 56 55 54 54 54 54 52 49 48 47 47 48 48 48 49
44 45 47 49 50 52 53 55 58 60 63 65 67 69 70 71 71 71 72 71 70 67 64 60 57 56 55 54 53 52 52 51 50 48 46 45 44 44 44 44 44 45
44 45 47 48 50 51 53 55 58 60 63 65 67 69 70 71 71 71 71 71 69 66 63 58 55 54 54 52 51 50 49 47 45 44 43 42 40 40 41 41 41 41
43 45 46 48 49 51 52 55 58 60 63 65 67 68 69 70 70 70 71 70 67 65 62 57 54 52 51 50 47 46 45 43 42 41 40 39 38 38 38 38 38 39
43 44 46 48 49 51 53 55 58 61 63 65 67 68 69 69 69 69 69 69 66 63 60 57 53 50 49 47 44 41 41 41 41 40 39 37 37 37 36 36 36 38
42 44 46 48 49 51 53 56 58 61 63 65 66 68 68 68 68 68 68 67 64 61 58 55 52 48 47 46 42 38 38 39 40 39 38 37 38 37 35 35 36 37
42 43 46 48 50 52 54 57 59 61 63 65 66 67 67 67 67 67 67 65 62 59 55 53 50 47 46 45 42 37 36 38 39 39 38 37 36 34 33 33 34 35

ECMWFNIL_500_spd_099.txt.gz
Wind_Speed
87 88 87 84 81 77 74 71 70 69 68 68 69 70 71 73 74 76 76 77 77 77 77 78 78 78 78 79 79 79 80 80 81 82 83 83 84 85 86 87 88 89
88 88 85 82 77 74 72 71 70 69 70 70 72 73 75 76 77 78 78 78 78 78 77 77 77 77 77 77 78 78 79 79 80 81 82 83 84 85 85 86 87 88
88 87 83 79 75 72 71 70 71 71 72 73 75 77 78 79 79 79 79 78 77 76 75 75 74 74 74 74 74 75 76 76 77 79 80 81 82 83 85 86 87 88
87 84 81 77 74 72 71 71 72 74 75 77 78 79 80 80 79 78 77 75 74 72 71 71 70 70 70 70 71 71 72 73 74 75 76 77 78 80 81 83 85 86
85 82 78 75 73 72 72 73 75 77 78 79 80 80 79 78 76 74 72 70 69 67 66 66 65 65 66 66 67 67 68 68 69 70 71 71 73 74 76 78 80 82
83 79 77 75 74 74 75 76 78 79 79 79 79 77 75 73 70 68 66 64 63 62 61 61 61 61 61 61 61 62 62 63 63 64 65 66 67 69 71 73 75 76
81 78 76 75 75 76 78 78 79 79 78 76 74 71 69 66 64 62 61 60 59 58 58 57 57 56 56 57 57 58 58 59 60 61 62 63 64 66 68 70 71 72
80 78 77 77 78 79 79 79 78 76 74 71 68 65 63 60 59 58 57 56 55 55 54 54 53 53 53 54 55 56 57 58 59 60 61 62 63 64 66 67 69 69
79 78 78 79 80 80 79 77 74 71 68 65 62 60 58 57 56 55 54 53 52 51 50 50 50 50 52 53 55 56 57 58 59 61 62 62 63 64 65 66 67 67
79 79 80 80 80 78 75 72 69 66 63 61 59 57 56 54 53 52 51 49 48 47 47 47 48 50 52 54 56 58 58 59 60 61 62 63 64 64 64 65 65 65
79 80 81 80 78 74 70 67 64 61 59 58 56 55 53 52 51 49 47 46 44 44 45 46 48 50 52 54 56 58 59 60 61 62 63 64 64 64 64 64 64 64
80 81 81 78 74 70 65 62 60 58 57 55 54 52 51 49 48 46 44 43 42 43 44 46 48 50 53 55 57 59 60 61 62 63 64 64 63 63 63 63 64 64
81 81 79 75 70 66 62 60 58 56 54 53 51 50 48 46 44 42 41 41 41 42 44 46 48 51 53 55 57 59 60 61 62 63 63 63 62 62 62 63 64 65
81 80 77 72 67 63 60 58 56 54 52 50 48 47 45 43 41 40 39 39 41 42 44 46 48 51 53 56 58 60 61 62 63 63 63 62 62 62 63 64 65 66
80 78 73 68 65 62 59 56 54 51 49 47 46 44 43 41 39 37 37 38 40 42 44 47 49 51 55 57 59 60 61 62 63 63 62 61 61 61 62 63 65 66
79 75 70 66 63 60 57 54 51 49 47 45 43 42 40 38 36 36 36 38 39 42 44 47 50 53 56 59 60 62 62 63 63 62 61 61 61 61 61 62 63 64
77 72 67 63 60 57 54 51 48 46 44 43 41 39 37 35 34 34 36 37 40 42 45 48 51 54 57 59 61 63 64 64 62 61 61 61 62 61 61 61 61 62
74 69 64 60 58 54 51 47 45 43 41 39 37 35 33 32 33 34 35 38 41 43 46 49 52 55 58 60 62 63 63 63 62 61 61 62 62 62 61 60 60 59
71 66 61 57 55 51 47 44 41 39 37 35 33 32 31 31 32 34 36 39 42 45 47 50 53 56 58 61 62 62 62 62 61 61 62 62 62 61 60 59 57 55
69 63 58 55 52 48 44 41 38 35 34 32 31 31 31 31 33 35 37 40 43 45 48 50 53 56 58 60 61 60 60 61 61 61 61 61 61 60 58 55 52 49
66 60 56 53 49 45 41 38 36 34 32 32 31 31 32 33 34 36 38 41 44 46 48 50 53 56 57 59 59 59 59 60 60 60 61 60 59 57 54 50 46 44
64 58 53 50 47 42 39 37 35 34 33 33 32 32 33 34 36 37 39 41 44 46 48 50 53 55 56 57 59 59 59 59 60 60 59 58 57 54 48 44 41 41
62 56 52 49 45 41 38 37 36 35 34 34 33 33 34 35 37 38 40 42 44 46 48 50 52 54 55 57 58 59 59 59 59 59 57 56 54 48 42 38 38 40
61 55 50 47 43 40 37 37 36 36 35 35 34 34 34 36 37 38 40 42 44 46 48 49 51 53 54 56 58 58 58 58 59 58 56 54 50 42 36 34 36 39
60 55 50 46 42 39 37 37 37 36 35 35 35 35 35 36 38 39 40 42 44 46 47 49 50 52 54 56 57 57 57 58 59 57 55 52 46 37 32 32 35 38
59 54 50 46 42 39 36 37 37 36 35 35 35 35 35 36 38 40 41 42 44 45 47 49 50 52 53 55 56 56 56 58 59 57 55 51 42 33 30 31 33 35

ECMWFNIL_500_spd_102.txt.gz
Wind_Speed
77 78 79 80 82 84 86 87 88 89 89 88 86 84 82 80 78 77 77 77 77 78 78 79 79 80 80 80 81 81 81 81 81 81 82 82 82 82 82 82 83 83
77 79 80 82 84 86 88 89 89 88 87 85 84 82 80 79 79 79 79 79 79 79 79 79 80 80 80 80 80 80 79 79 79 79 79 78 79 79 79 79 80 80
78 79 81 83 86 88 89 89 89 87 86 84 83 82 81 81 81 81 81 80 79 78 77 77 77 76 76 75 75 75 74 74 73 73 73 73 73 74 74 75 75 75
78 80 82 85 87 89 89 89 88 86 84 83 82 83 83 83 82 81 79 77 75 73 72 71 70 70 69 68 68 67 67 67 67 67 68 68 68 69 69 70 70 71
79 81 83 86 88 89 89 88 86 84 83 83 83 83 83 81 79 76 73 71 69 67 65 65 64 63 63 62 62 61 61 62 62 63 63 63 64 64 65 66 66 67
80 82 84 87 89 89 88 87 85 83 83 83 83 82 80 76 73 70 68 66 64 62 61 60 60 59 58 58 58 58 58 59 59 60 60 60 61 61 62 63 63 64
82 83 85 88 89 89 87 85 84 83 83 83 81 78 74 70 68 66 64 63 61 59 58 57 57 56 56 56 55 55 56 56 56 57 57 57 58 58 58 59 59 59
83 84 86 88 89 88 86 84 83 83 83 82 78 73 69 66 64 63 61 60 58 56 55 55 54 54 54 54 53 53 53 53 54 54 54 54 54 54 54 55 56 57
83 85 86 88 88 87 85 83 82 82 82 78 73 69 66 64 62 60 58 56 54 53 52 52 51 51 51 51 50 50 50 50 50 50 50 50 50 51 52 54 55 56
83 84 86 87 88 86 84 82 81 81 79 74 68 65 63 61 59 56 54 52 50 50 49 49 48 48 48 47 47 47 47 46 46 47 47 47 48 50 52 54 55 57
83 84 86 87 86 85 83 81 80 79 75 69 64 61 59 57 54 52 50 48 47 46 46 46 45 45 44 44 43 43 43 43 44 45 46 47 49 51 53 54 56 58
83 84 85 86 85 84 82 80 79 77 71 65 61 58 55 53 50 48 46 45 44 44 43 43 42 41 41 40 40 40 41 41 43 44 46 48 50 52 54 56 58 60
82 84 85 85 85 83 81 79 77 74 68 61 57 54 51 49 47 45 44 42 41 41 40 39 39 38 37 37 37 38 39 41 43 45 47 49 51 53 55 57 59 62
82 83 84 84 84 82 80 77 76 72 65 58 54 51 48 46 45 43 41 40 39 37 36 35 34 34 34 35 36 38 40 42 45 47 49 50 52 54 55 57 60 62
82 83 84 84 83 81 78 76 74 70 62 56 52 49 46 44 42 40 39 37 36 35 33 33 32 32 33 35 37 39 42 45 46 48 50 51 53 54 55 57 59 61
82 83 83 83 82 80 77 75 73 68 60 54 51 47 45 43 41 39 37 35 34 33 32 32 32 33 35 37 39 42 44 46 47 49 51 51 52 53 54 55 57 59
82 82 83 82 81 79 76 74 71 66 59 53 49 46 44 42 41 39 37 36 34 33 32 32 33 34 37 39 41 44 46 47 48 49 50 50 50 51 53 55 57 58
81 82 82 81 80 78 75 72 70 65 57 52 48 45 43 42 41 39 38 36 35 34 33 33 34 36 39 40 42 46 48 49 49 48 48 48 49 51 53 55 57 58
81 81 81 80 79 77 74 71 69 64 57 51 47 44 42 41 41 39 38 37 36 35 34 34 35 38 40 42 44 46 48 49 48 47 47 48 50 52 54 56 57 58
81 81 80 80 79 76 73 71 68 64 57 51 47 43 41 41 40 39 38 38 37 36 35 35 36 40 42 43 45 47 48 48 48 47 48 49 51 52 54 56 57 57
81 81 80 79 78 76 72 70 67 63 57 51 47 43 41 40 40 39 38 38 38 37 36 36 38 41 43 44 45 47 48 48 47 47 48 49 51 52 54 55 55 56
81 81 80 79 77 75 72 69 66 63 58 51 47 43 41 40 40 39 38 38 38 38 37 37 39 42 44 45 46 48 48 47 47 47 48 49 51 52 53 54 54 55
81 81 80 79 77 74 71 68 65 63 58 52 47 43 41 40 39 39 38 38 38 38 38 38 40 43 45 45 46 48 48 47 47 47 48 49 50 51 52 52 53 54
81 81 80 78 76 74 70 67 64 62 58 52 47 43 41 40 39 38 38 38 38 39 39 39 40 43 45 46 47 48 48 47 47 47 47 49 50 50 50 51 51 52
82 82 80 79 76 73 70 66 64 61 58 53 48 44 41 39 39 38 37 37 38 39 39 40 40 42 45 46 47 48 48 47 46 46 47 48 49 48 48 49 50 50
82 82 81 79 76 73 69 66 63 60 57 53 48 44 41 39 39 38 37 37 38 39 40 40 40 41 44 46 47 48 48 47 47 47 47 48 48 48 47 48 48 48

ECMWFNIL_500_spd_105.txt.gz
Wind_Speed
71 72 73 74 75 76 77 78 79 80 81 81 81 81 81 83 85 87 90 91 91 89 87 86 86 86 83 80 77 75 74 73 73 73 74 75 76 77 78 80 81 82
72 73 73 74 75 77 78 79 80 81 81 81 81 81 81 83 85 88 90 91 89 87 86 86 85 82 78 74 72 71 69 68 68 67 68 68 69 70 71 73 74 76
73 73 74 75 76 77 78 79 80 81 81 81 81 81 82 84 86 88 90 90 88 86 85 84 81 76 72 70 69 68 67 65 64 64 63 63 63 64 65 66 67 68
73 74 75 76 77 78 79 80 80 81 81 81 81 81 82 84 86 88 89 88 86 84 83 81 76 71 69 67 66 65 64 63 61 60 60 59 59 60 60 61 61 62
73 74 75 76 77 78 79 80 81 82 82 81 81 82 83 85 87 88 88 86 84 82 81 76 71 67 65 64 63 62 61 59 58 57 57 56 56 57 57 57 58 58
74 75 75 76 78 79 79 80 81 82 82 82 82 82 84 85 87 88 87 85 82 80 78 72 67 64 62 61 60 59 58 56 55 54 54 53 54 54 54 55 55 55
74 75 76 77 78 79 80 81 82 82 82 82 82 83 84 86 87 87 85 83 80 78 74 68 64 61 59 58 57 56 55 53 52 52 51 51 51 51 52 52 53 53
75 76 77 78 79 80 80 81 82 82 83 83 83 83 85 86 86 86 84 81 78 76 71 65 61 58 57 56 55 53 52 51 50 49 49 48 48 48 49 49 50 49
75 76 78 78 79 80 80 81 82 83 83 83 83 84 85 86 86 85 82 79 76 73 67 62 58 56 55 54 53 51 49 48 47 47 46 46 46 46 46 46 46 45
76 77 78 78 79 80 81 82 82 83 83 84 84 84 85 85 85 84 80 76 74 70 64 59 56 54 53 52 51 49 47 45 45 44 43 43 42 42 41 41 41 40
76 77 78 78 79 80 81 82 82 83 84 84 84 84 85 85 85 83 79 74 72 68 62 56 54 52 51 50 49 48 45 43 42 41 40 39 38 37 37 36 36 37
76 77 77 78 79 80 81 82 82 83 84 84 84 85 85 85 84 81 77 73 70 66 60 55 52 51 50 49 47 46 44 42 40 39 38 37 36 35 35 35 36 38
76 77 77 78 79 80 81 82 82 83 84 84 85 85 85 85 83 80 76 72 69 65 58 53 50 49 48 47 46 44 43 41 40 39 37 36 36 35 36 37 38 40
76 77 77 78 79 81 81 82 83 83 84 84 85 85 85 84 82 79 75 70 67 63 57 52 49 48 47 46 45 44 43 41 40 39 38 37 36 36 37 38 40 42
76 77 77 78 80 81 81 82 83 84 84 84 85 85 85 84 81 78 74 69 66 62 56 50 48 47 47 46 45 43 43 42 41 40 38 37 37 37 38 39 41 44
76 76 77 78 80 81 81 82 83 84 84 84 85 85 85 83 80 77 73 68 65 61 55 50 47 46 46 45 44 43 43 42 41 40 39 38 38 38 39 40 43 45
76 76 77 78 80 81 82 82 83 84 84 85 85 85 84 82 79 76 72 68 64 60 54 49 46 45 45 45 44 43 43 43 42 40 39 39 38 39 39 41 43 46
75 76 77 79 80 81 82 83 84 84 85 85 85 85 84 81 78 74 70 67 63 59 54 49 46 45 45 45 44 43 44 44 43 41 39 38 38 39 40 41 43 46
75 76 77 79 80 81 82 83 84 85 85 85 86 85 83 80 76 73 69 66 63 58 53 49 46 45 45 45 44 43 44 45 44 42 40 39 38 40 41 42 44 46
75 76 78 80 81 82 82 83 84 85 85 86 86 85 83 79 75 71 67 64 62 58 53 48 46 45 45 44 44 43 44 46 45 43 41 40 40 40 41 43 45 46
75 77 79 80 81 82 83 84 85 85 85 86 86 85 81 77 73 69 66 63 61 57 52 47 46 45 45 44 44 43 44 45 45 44 42 41 40 41 42 44 45 46
76 78 79 80 81 82 83 84 85 85 86 87 86 84 80 76 72 68 64 61 59 56 51 47 45 45 45 44 43 43 44 45 45 44 42 41 41 42 43 44 45 46
77 78 79 80 81 82 83 84 85 85 86 87 86 83 79 74 70 66 63 60 58 54 50 46 44 45 45 44 43 43 44 45 45 44 42 41 41 42 43 43 44 46
77 79 79 80 81 83 84 85 85 86 87 87 85 82 77 72 68 64 61 59 56 53 49 45 43 44 45 44 43 43 44 46 46 44 42 41 41 42 42 43 44 45
78 79 80 80 82 83 84 85 86 86 87 87 84 80 75 70 66 63 59 57 54 51 48 45 42 42 43 43 42 43 44 46 46 44 41 41 41 41 41 42 43 44
78 79 80 81 82 84 85 86 86 87 87 86 83 79 74 68 64 61 57 54 52 50 46 44 42 41 41 42 42 43 44 46 46 44 42 41 40 40 40 41 42 44

ECMWFNIL_500_spd_108.txt.gz
Wind_Speed
71 71 72 72 72 72 72 72 72 71 72 72 73 74 75 76 77 78 80 80 81 82 83 83 83 83 83 84 84 85 87 88 90 91 90 87 84 81 75 70 68 68
72 72 72 73 73 73 72 72 72 72 72 73 74 74 75 76 78 79 80 81 82 83 83 83 83 83 84 84 85 86 87 89 90 90 87 84 81 76 70 67 66 66
72 72 73 73 73 73 72 72 72 72 73 73 74 75 75 76 78 79 80 81 82 83 83 84 84 84 84 84 85 86 88 89 89 87 84 80 77 71 67 65 65 64
72 72 73 73 73 73 73 72 72 72 73 74 75 75 76 77 78 79 80 82 83 83 84 84 84 84 84 84 85 87 88 89 87 85 81 77 73 67 64 64 63 62
72 72 73 73 73 73 72 72 72 73 73 74 75 76 76 77 79 80 81 82 83 84 84 84 84 84 84 85 86 87 88 87 86 82 78 74 69 64 63 62 60 58
72 72 72 73 73 72 72 72 72 73 74 75 75 76 77 78 79 80 82 83 84 84 84 84 85 85 85 86 86 87 87 86 83 79 75 71 65 62 61 60 57 55
72 72 72 72 72 72 72 72 72 73 74 75 75 76 77 78 79 81 82 83 84 84 84 85 85 85 85 86 87 87 86 84 81 76 72 67 62 60 59 57 54 52
72 72 72 72 72 72 71 71 72 73 74 75 75 76 77 78 80 81 83 84 84 84 85 85 85 85 86 86 87 87 85 82 78 74 70 65 60 58 56 54 51 49
71 72 72 72 72 71 71 71 72 73 74 75 76 76 77 78 80 82 83 84 84 85 85 85 86 86 86 87 87 86 83 80 76 71 67 62 58 56 54 52 49 46
71 72 72 71 71 71 71 72 72 73 75 75 76 77 78 79 81 83 84 84 84 85 85 86 86 86 87 87 86 85 81 78 73 69 65 60 56 54 52 49 47 44
71 71 71 71 70 70 71 72 72 73 75 75 76 77 78 80 82 83 84 84 84 85 86 86 87 87 87 87 86 84 80 75 71 67 63 59 55 52 50 47 45 43
70 70 70 70 70 70 71 72 72 74 75 76 76 77 78 81 82 83 84 84 85 86 87 87 87 87 88 87 85 82 78 73 68 64 61 57 53 50 48 46 44 42
70 70 69 69 70 71 71 72 73 74 75 76 77 77 79 81 83 83 84 84 85 86 87 87 88 88 88 86 84 80 76 71 66 62 59 55 52 49 47 45 43 41
69 69 69 69 70 71 71 71 73 74 75 76 77 78 80 82 83 83 84 85 86 87 87 88 88 88 87 85 82 78 74 69 64 61 56 53 50 48 46 44 42 41
68 68 68 69 70 70 70 71 73 74 75 76 77 79 81 82 83 84 84 85 86 87 87 88 88 88 86 84 80 76 72 67 62 59 55 51 49 47 44 43 41 40
67 67 68 69 70 70 70 72 73 74 75 76 78 80 82 83 83 84 85 86 87 87 88 88 88 87 85 82 78 74 70 65 60 57 53 50 48 46 43 41 40 40
66 67 68 69 69 69 70 72 73 74 75 77 79 81 82 83 84 85 86 87 87 88 88 88 88 86 83 79 75 72 68 64 59 55 51 48 46 45 42 40 40 40
66 67 68 68 68 69 71 72 73 74 76 78 80 81 83 83 84 85 87 87 88 88 89 88 87 83 80 76 72 69 66 64 60 54 49 45 44 43 41 40 39 39
66 67 67 67 68 69 71 72 73 75 77 79 80 82 83 84 85 86 87 88 89 89 89 88 85 81 77 73 69 66 64 62 59 53 48 44 42 41 40 39 39 39
66 67 67 67 68 69 71 73 74 75 77 79 81 83 84 85 86 87 88 89 89 89 89 86 82 78 74 70 66 63 61 60 57 52 47 44 42 41 40 39 39 39
66 66 66 67 68 70 71 73 74 76 78 80 82 83 84 85 86 88 88 89 90 89 88 84 79 74 71 67 64 61 59 57 54 50 46 43 41 41 40 39 38 38
66 66 66 67 69 70 71 73 75 77 79 81 82 83 84 86 87 88 89 89 89 88 85 80 75 71 68 64 61 59 57 55 51 47 45 43 41 41 40 39 38 39
65 65 66 68 69 70 72 73 76 78 80 82 83 84 85 86 87 88 89 89 88 86 82 77 71 67 64 61 58 56 54 52 49 46 44 42 41 40 40 39 39 39
65 66 67 68 69 70 72 74 77 79 81 82 83 84 85 87 88 89 89 89 86 83 78 73 67 63 61 58 55 53 52 50 48 45 43 41 40 40 40 39 39 38
65 66 67 68 69 71 73 76 78 80 81 83 84 85 86 87 88 89 89 87 83 78 73 69 64 59 57 55 52 50 49 49 47 44 42 41 40 39 39 39 38 38
65 66 67 68 70 72 75 77 79 81 82 83 85 86 87 87 89 89 88 84 78 73 69 65 61 56 53 51 48 47 47 47 46 43 42 41 39 38 38 37 37 38